Temp_Advection
nan nan nan nan nan nan nan nan nan nan nan nan nan nan nan nan nan nan nan nan nan nan nan nan nan nan nan nan nan nan nan nan nan nan nan nan nan nan nan nan nan nan nan nan nan nan nan nan nan nan nan nan nan nan
nan 0 0 0 0 0 0 1 1 1 1 1 1 1 0 -0 0 -1 0 2 1 -1 0 1 1 1 -0 0 -0 -0 -0 -0 0 0 -0 0 0 0 0 0 0 0 -0 -0 -0 -1 -1 -0 0 0 0 1 0 nan
nan 0 0 0 0 0 0 0 1 1 0 0 -0 0 1 1 2 1 -1 -1 -0 -2 1 1 0 1 1 1 1 0 0 0 0 0 0 0 -0 0 0 -0 -0 0 -0 -0 0 -0 -0 -0 0 0 0 0 0 nan
nan -0 -0 -0 0 1 0 0 0 1 1 1 0 -0 0 -0 0 1 0 -1 -1 -1 -1 -0 0 0 0 0 0 0 0 0 0 0 0 0 0 -0 0 0 -0 -0 0 -0 -0 -0 -1 -0 0 0 0 0 0 nan
nan 0 -0 -0 0 0 1 0 -0 0 1 1 1 -0 -1 -1 -1 -1 0 0 -0 -0 -1 -1 -0 0 0 0 0 0 0 0 0 -0 0 0 -0 -0 -0 0 0 0 0 0 -0 0 -0 -1 -0 0 0 0 0 nan
nan 0 0 0 -0 0 1 1 0 0 1 1 -0 -1 -1 -0 -1 -1 -0 0 0 -0 0 -0 -0 0 0 0 0 0 0 0 0 0 -0 -0 -0 -0 0 -0 -0 0 0 0 0 0 0 -0 0 -0 -0 0 0 nan
nan 0 1 0 0 0 0 1 1 0 0 0 1 1 -0 -0 0 0 -0 -0 1 -0 -0 -0 -0 -0 0 0 0 0 0 0 0 0 0 -0 -0 0 0 0 -1 -0 -0 -0 -0 -1 -0 -0 -0 0 -0 -0 -0 nan
nan 0 1 1 1 1 0 0 1 1 1 0 0 1 1 0 -1 0 1 -0 0 0 -0 -0 -0 -0 0 0 -0 0 0 -0 -0 0 0 0 -0 -0 0 -0 -1 -0 -0 -0 -0 -0 -1 -0 -0 -0 -0 -0 -0 nan
nan 1 0 1 1 1 1 1 1 0 1 1 1 0 -0 -1 -0 0 1 0 -0 -0 -0 -0 -0 -0 -0 0 -0 0 0 -0 0 0 0 0 -0 0 -0 -0 -1 -0 -0 -0 -0 -0 -0 -0 -0 -0 -0 -0 -0 nan
nan 1 1 0 1 1 1 1 1 0 0 0 1 -0 -1 0 2 0 0 -0 -0 0 0 0 -1 -0 -0 -0 -0 0 0 -0 0 0 0 -0 -0 -0 0 0 -0 -0 -0 -1 -1 -1 -0 -0 -0 0 0 0 0 nan
nan 0 0 0 1 1 1 1 1 1 1 -0 -1 -0 1 1 0 -0 0 0 0 -0 -0 0 0 -0 0 0 -0 0 0 0 0 0 0 0 0 0 0 0 0 0 0 0 -0 -0 -0 -0 0 0 0 0 0 nan
nan 0 0 0 0 0 0 0 1 0 -0 0 0 0 -0 -0 0 -0 -0 0 0 -0 0 0 0 -0 0 0 -0 0 0 0 0 0 0 -0 -0 0 0 0 0 0 0 0 0 0 0 0 0 0 -0 -0 -0 nan
nan 0 0 0 1 1 1 1 0 0 0 0 -0 0 0 -0 0 -0 -0 0 0 0 0 1 0 0 -0 -0 0 -0 0 0 0 0 -0 -0 -0 0 1 1 1 1 1 0 0 0 0 0 -0 -0 -0 -0 -0 nan
nan 0 0 0 0 0 1 1 0 0 -0 -0 -0 0 -0 -0 -0 -0 0 -1 -0 1 0 -0 0 -0 -0 -0 0 0 0 -0 -0 -0 0 -0 0 0 1 1 1 1 1 0 0 0 0 0 -0 -0 -0 0 0 nan
nan 0 0 0 0 0 1 1 1 -0 -1 0 -0 -0 -0 -0 -0 -0 0 1 1 1 0 0 0 -0 -0 0 0 -0 -0 -0 -0 0 -0 -0 1 1 1 1 0 0 0 0 0 0 -0 0 0 0 0 0 0 nan
nan 0 0 0 0 0 1 0 -0 -1 -0 0 -0 0 0 -0 -0 -0 0 1 1 0 0 0 -0 -0 0 -0 -0 -0 -0 0 -0 -1 -0 0 0 1 0 0 -0 0 0 0 0 0 0 0 0 0 0 0 0 nan
nan -0 0 0 0 0 0 -0 -1 -0 0 -0 -0 -0 0 -0 -0 0 0 0 0 0 0 0 -0 0 0 -0 -0 -0 -0 -1 -0 -0 0 0 0 0 -0 -0 0 0 0 0 0 0 0 0 0 0 0 0 0 nan
nan 0 0 1 1 0 -1 -1 -0 -0 -0 -0 -0 -0 0 0 0 0 0 1 0 0 0 -0 -0 -0 0 0 0 -0 -1 -0 -0 -0 0 0 0 0 -0 0 0 0 0 0 0 0 0 0 -0 -0 0 0 -0 nan
nan 0 0 1 0 -0 -0 -0 0 -0 -0 -0 -0 0 0 0 0 0 0 0 0 0 0 0 0 0 -0 -0 -1 -0 -0 -0 -0 -0 0 1 0 0 0 0 1 0 0 1 1 0 0 0 0 -0 -0 -0 -0 nan
nan 0 0 0 -0 -0 -0 -0 0 -0 -0 -0 0 0 0 0 0 0 0 0 0 0 0 -0 -0 -0 -0 -0 -0 -0 -0 -0 -1 -1 -1 0 1 1 0 1 0 1 0 0 0 0 0 -0 0 0 0 0 0 nan
nan 0 0 -0 -1 -0 0 -0 -0 0 0 -0 0 0 -0 0 0 0 0 0 0 -0 -0 -1 -1 0 0 -0 -0 -0 0 0 -0 -0 -0 -1 0 0 1 0 0 0 0 0 -0 -0 -0 -0 0 0 0 0 1 nan
nan 0 -0 -1 -0 -0 -0 -0 0 0 0 0 0 0 -0 -0 -0 -0 0 -0 -0 -0 0 0 -0 -0 -0 -0 -0 -0 0 0 0 0 0 -0 -0 -0 0 0 -0 -0 -0 -0 0 0 0 0 0 1 0 1 0 nan
nan -0 -0 -0 -0 -0 -0 0 0 0 0 0 0 0 -0 -0 -0 0 0 -0 -0 -0 0 0 0 0 0 0 -0 -0 0 0 0 0 0 0 0 -0 -0 -0 0 0 0 0 0 0 0 1 0 0 0 0 0 nan
nan -0 -0 0 0 -0 0 0 0 0 0 0 -0 -0 -0 -0 0 -0 -0 -0 -0 -0 0 0 0 -0 -0 0 -0 -0 0 0 -0 0 0 0 0 0 0 0 0 0 0 0 0 0 1 0 0 0 0 0 0 nan
nan -0 0 0 0 0 0 0 0 0 -0 0 0 0 -0 0 -0 -0 0 -0 -0 -0 0 0 0 0 -0 -0 -0 0 0 -0 0 -0 0 0 -0 -0 0 0 0 1 0 0 0 0 0 0 0 0 -0 0 -0 nan
nan 0 0 -0 0 0 -0 -0 0 0 0 -0 -0 -0 0 -0 -0 -0 -0 -0 -0 -0 0 0 0 0 0 0 -0 -0 0 -0 0 0 0 0 0 0 -0 -0 -0 0 0 0 0 0 0 0 -0 -0 0 0 0 nan
nan -0 -0 0 0 0 0 0 0 0 -0 0 -0 -0 -0 -0 -0 -0 -0 -0 -0 0 0 0 0 0 0 0 0 -0 -0 -0 -0 -0 -0 0 0 0 0 -0 -0 -0 -0 0 -0 -0 -0 -0 0 0 0 0 0 nan
nan 0 -0 -0 0 0 0 0 0 -0 0 -0 0 -0 -0 -0 -0 -0 -0 -0 -0 0 0 0 -0 -0 0 -0 0 0 0 0 0 0 -0 0 0 0 0 0 0 0 0 0 0 0 0 0 0 0 0 0 0 nan
nan 0 0 -0 0 -0 -0 -0 -0 -0 -0 0 -0 -0 -0 -0 0 -0 -0 -0 -0 -0 0 0 0 0 0 0 0 0 0 0 0 0 0 0 0 0 0 0 0 0 0 0 0 0 0 0 0 0 0 0 0 nan
nan 0 -0 -0 -0 -0 0 0 0 0 0 0 0 -0 0 -0 -0 -0 0 0 -0 -0 -0 0 0 0 0 0 0 0 0 0 0 -0 -0 -0 -0 0 0 0 0 0 0 0 0 0 0 0 0 0 0 0 0 nan
nan -0 -0 -0 0 0 0 -0 -0 0 0 0 -0 -0 0 0 -0 -0 0 0 0 0 0 0 0 0 0 0 0 0 0 0 0 0 0 0 -0 0 0 0 0 0 0 0 0 0 0 0 0 0 0 0 -0 nan
nan -0 -0 0 0 0 -0 -0 -0 0 0 -0 0 0 -0 -0 0 0 -0 1 1 1 0 0 0 0 0 0 0 0 0 0 0 0 0 0 0 0 0 0 0 0 0 0 0 0 0 0 0 -0 -0 -0 -0 nan
nan nan nan nan nan nan nan nan nan nan nan nan nan nan nan nan nan nan nan nan nan nan nan nan nan nan nan nan nan nan nan nan nan nan nan nan nan nan nan nan nan nan nan nan nan nan nan nan nan nan nan nan nan nan
Wind_Speed
28 25 21 13 13 13 20 28 36 38 41 45 55 68 82 82 56 54 44 38 34 10 16 24 23 27 19 23 9 19 9 6 8 8 7 4 4 6 3 1 9 10 7 5 6 6 10 5 5 3 9 14 12 12
23 22 17 11 17 23 31 37 42 45 53 59 65 66 64 61 54 50 42 29 27 22 16 20 22 18 14 22 15 26 3 21 10 7 4 3 3 3 8 5 5 4 3 2 5 4 6 5 11 11 12 14 12 14
24 21 16 19 26 29 32 40 43 48 51 54 56 57 53 50 44 42 39 35 35 42 27 20 15 13 15 16 15 13 10 8 5 3 4 1 4 5 6 3 6 2 2 3 6 5 7 9 11 14 13 12 12 11
23 19 20 22 29 29 34 41 45 50 53 53 54 51 47 44 42 46 41 37 37 22 11 11 10 14 10 12 9 9 16 10 12 9 4 3 3 3 2 0 3 1 7 6 4 8 11 8 11 13 14 11 11 10
25 26 24 28 28 32 32 42 53 52 51 44 36 33 36 39 40 41 36 27 28 15 13 21 23 15 15 16 17 16 16 16 13 6 3 3 5 3 3 2 3 3 4 3 1 16 3 15 12 13 14 11 10 10
27 28 34 32 33 33 38 43 47 36 34 33 32 37 45 43 43 38 23 18 18 47 22 5 11 13 16 16 17 15 12 9 5 5 4 3 2 3 4 3 6 5 4 2 5 14 14 18 14 11 12 10 9 9
27 25 32 32 34 35 34 31 30 30 31 33 36 40 41 37 25 15 11 19 25 19 12 7 6 7 11 12 12 11 8 6 5 5 2 5 7 4 2 2 10 8 9 14 18 22 17 16 10 12 11 11 11 10
25 29 31 34 34 31 30 31 31 33 35 35 32 27 23 22 27 34 33 25 19 14 9 5 5 10 7 9 6 3 6 5 3 3 3 4 6 1 2 7 13 13 15 17 14 6 16 14 17 14 12 11 10 10
28 32 32 31 31 32 32 32 32 31 29 27 26 26 27 21 13 18 20 16 14 9 5 3 9 5 8 8 8 5 2 2 2 2 2 3 3 3 6 14 17 19 14 14 13 17 19 19 17 15 12 10 10 11
28 33 30 30 30 29 30 31 31 33 35 35 26 10 7 9 27 21 8 4 7 7 6 6 11 6 15 10 3 5 1 3 4 2 6 2 3 4 9 14 16 13 14 18 20 19 17 17 16 14 11 10 11 12
30 29 28 28 27 27 25 24 25 27 23 7 7 6 14 16 7 5 4 4 3 4 5 3 17 12 10 5 5 2 2 2 4 3 3 4 3 9 13 14 15 14 16 14 10 14 14 15 16 15 13 13 13 13
29 26 25 25 25 24 20 18 20 14 3 5 18 21 10 4 5 5 3 2 2 4 8 10 16 15 6 4 4 3 2 2 2 5 2 3 4 15 17 16 17 16 15 11 11 13 13 14 15 14 15 15 14 13
28 26 25 26 26 22 16 18 15 28 26 16 7 5 3 5 4 2 4 3 4 5 7 14 8 6 5 4 3 2 3 2 5 3 3 3 12 16 18 17 16 15 14 13 12 12 14 15 15 16 17 15 14 13
27 25 24 23 21 16 22 18 13 10 7 8 6 5 3 3 4 3 4 6 5 16 21 18 8 4 4 3 1 3 2 4 3 3 3 5 14 18 18 17 18 20 18 16 17 18 19 17 17 15 14 14 13 12
23 22 21 20 18 17 13 10 10 10 7 6 5 4 4 5 7 8 9 12 18 22 17 12 6 6 3 3 1 3 3 4 4 1 3 9 17 19 19 17 17 18 16 14 15 16 16 16 16 16 15 13 12 10
22 21 19 14 13 14 13 10 11 10 6 5 7 4 4 9 8 12 15 14 13 11 8 5 3 3 2 3 3 3 3 3 2 4 4 12 18 20 18 17 17 15 15 15 15 16 17 16 16 15 13 11 10 8
18 13 13 11 10 9 9 10 9 8 6 4 4 9 10 10 8 10 15 8 5 5 2 2 3 2 3 2 3 0 1 3 4 5 6 11 18 19 18 18 17 15 15 14 16 17 17 16 14 12 11 10 8 6
21 16 14 14 14 15 20 10 6 6 7 8 5 7 11 11 12 10 7 7 5 5 3 3 4 2 2 2 3 3 5 5 6 7 8 13 16 18 17 17 16 15 14 15 17 17 16 14 12 10 8 8 6 5
16 13 11 11 7 6 6 7 7 6 8 5 7 9 9 10 12 9 9 7 6 6 4 2 2 2 3 4 5 4 6 5 7 8 11 13 15 17 17 15 15 14 14 16 17 14 13 12 8 8 7 7 5 5
14 13 11 9 6 5 5 6 6 6 5 4 6 7 6 6 8 8 5 5 5 3 3 2 3 5 5 6 5 5 7 9 10 12 11 12 15 16 14 14 12 13 14 15 13 12 11 10 8 8 7 6 5 5
14 14 13 15 18 11 7 5 6 5 4 5 4 5 5 6 6 5 4 2 2 2 3 5 7 7 8 5 4 5 7 8 6 5 11 14 14 12 14 12 12 12 13 13 12 11 11 9 8 8 9 8 9 7
12 11 14 12 8 6 7 8 4 3 4 3 3 4 5 4 4 3 2 1 2 5 4 4 5 6 4 4 5 5 7 8 8 9 12 13 14 13 13 12 13 13 12 12 11 11 10 9 9 10 10 10 6 4
9 10 8 7 6 5 3 6 3 4 3 2 1 2 3 3 3 2 1 1 3 2 3 4 5 5 5 4 4 5 6 6 6 6 10 9 10 11 12 12 12 13 12 11 10 10 12 12 11 10 9 5 4 4
8 5 6 5 6 4 3 4 3 3 3 2 2 2 2 2 2 1 1 3 3 2 3 4 5 5 5 5 4 4 5 6 7 8 8 10 11 11 11 11 11 11 10 12 11 14 14 12 9 7 6 5 5 5
3 6 4 5 4 3 3 2 2 2 2 1 2 1 1 0 1 1 1 4 3 2 2 4 4 3 3 5 4 3 6 5 6 7 8 9 11 12 12 12 12 12 12 14 13 11 10 9 8 6 5 5 5 5
4 5 4 4 3 2 2 2 1 2 2 2 1 2 1 1 1 1 2 2 3 3 3 6 5 3 3 3 4 4 5 6 7 8 8 9 9 11 12 12 11 9 12 10 10 10 8 8 7 7 6 6 6 7
2 3 3 3 3 2 2 3 2 1 1 1 2 2 2 2 1 3 2 2 2 3 5 9 9 3 3 4 7 7 9 10 9 11 13 15 15 12 11 9 10 10 11 10 8 8 8 7 7 6 6 6 6 7
3 1 2 2 2 2 1 1 0 1 0 1 1 2 1 3 3 2 1 2 2 2 5 7 6 4 3 3 5 7 8 8 7 7 9 11 11 12 12 12 11 10 10 9 8 7 7 6 5 5 6 6 6 6
1 1 3 2 1 1 2 2 1 1 0 0 1 1 2 1 1 2 2 2 2 4 4 4 6 5 4 4 6 7 7 8 9 11 9 9 11 10 11 10 9 9 8 7 6 6 5 4 4 5 5 4 4 5
3 5 3 2 2 3 2 1 1 3 2 2 1 1 1 1 3 4 4 3 3 3 5 5 5 6 6 6 7 10 11 13 12 9 8 9 11 11 12 10 9 8 7 7 5 4 3 3 3 2 2 3 4 5
3 4 3 3 3 1 1 4 4 4 4 3 7 4 3 3 6 8 10 10 9 8 6 6 7 8 9 8 8 10 12 12 10 8 6 7 9 11 10 10 9 8 7 5 4 2 2 1 1 2 2 3 4 5
4 5 3 3 2 2 2 1 2 3 3 3 4 4 3 3 4 5 7 9 9 8 9 8 7 9 12 13 13 13 12 11 9 7 7 8 10 10 10 9 8 7 5 3 2 1 1 1 1 2 3 4 4 5
2 3 2 2 2 2 2 3 2 3 3 3 2 3 5 2 1 4 4 6 12 12 11 15 15 12 12 12 12 12 12 12 9 9 10 9 9 9 9 8 6 4 3 2 1 1 1 1 1 2 3 4 5 5
Wind_Direction
242 233 207 227 210 167 109 104 124 115 123 130 134 139 148 155 160 155 154 166 167 122 143 155 164 164 173 195 160 151 138 183 185 199 211 189 253 191 214 197 183 196 207 211 231 255 237 36 146 241 112 121 126 115
195 179 191 195 170 130 105 106 115 116 114 120 127 133 142 150 152 151 135 146 166 131 132 145 148 176 195 187 166 170 180 162 172 196 227 165 225 142 204 201 219 234 313 1 5 40 75 50 84 113 121 122 124 121
160 166 171 167 158 127 107 110 114 123 126 126 128 132 136 143 142 157 137 133 138 117 108 116 121 143 143 147 153 161 160 152 164 108 152 179 213 202 198 172 128 134 82 97 179 123 110 95 107 113 118 115 120 121
142 146 151 155 154 138 117 110 112 110 111 113 121 121 126 134 130 140 141 139 129 119 113 105 112 109 114 140 142 158 153 139 146 146 157 180 179 309 100 128 102 91 156 152 92 129 119 115 122 120 114 116 118 119
139 137 111 146 145 143 113 125 118 109 109 108 112 124 144 151 149 148 140 143 144 129 121 117 95 81 95 104 108 115 128 134 144 150 165 180 93 147 80 129 140 170 153 210 150 161 101 140 138 134 124 123 123 122
129 129 114 122 129 120 122 121 119 109 112 121 128 134 137 142 147 133 99 95 129 125 115 94 97 103 101 103 105 108 114 120 139 142 105 96 110 271 177 127 115 134 106 109 140 138 137 139 140 148 133 129 126 121
122 122 111 118 114 107 113 117 123 124 123 126 129 133 134 133 149 148 128 139 126 118 99 115 119 119 118 103 100 95 101 95 126 123 161 144 160 179 210 175 137 145 129 122 133 127 120 143 148 144 141 131 123 120
126 124 109 112 111 115 119 122 125 129 129 129 133 134 126 124 110 111 123 131 112 100 92 103 110 132 162 139 110 106 118 138 53 92 158 184 143 143 168 135 137 137 134 134 145 141 146 146 146 147 143 137 133 129
113 129 117 118 119 120 118 119 121 124 130 133 125 124 114 92 99 106 118 97 87 82 96 112 145 136 165 118 121 117 128 111 116 168 170 208 130 215 157 162 150 148 156 154 135 138 143 150 153 153 153 152 148 143
112 115 126 127 128 125 123 122 123 126 127 127 125 97 70 108 118 114 78 60 47 53 59 97 114 132 155 151 109 125 139 150 165 155 122 262 128 115 152 162 154 159 148 151 145 150 157 158 160 159 160 159 159 155
117 118 124 134 134 132 134 135 135 135 134 96 61 79 121 113 79 63 66 60 103 87 84 109 136 131 136 131 123 57 149 163 185 148 204 198 189 162 156 149 151 154 151 150 153 158 164 167 164 161 156 155 159 163
115 115 115 120 130 134 132 139 137 128 87 96 121 112 95 59 67 77 59 85 72 109 135 136 130 123 103 104 96 153 122 236 142 153 187 230 114 154 156 151 153 157 156 150 149 153 157 163 163 159 155 154 160 163
113 110 114 120 125 114 95 121 118 119 107 103 92 76 33 27 75 102 143 122 116 126 139 142 130 118 116 89 85 93 162 108 161 182 217 70 142 156 162 159 155 157 157 151 147 150 150 149 153 160 164 164 159 158
110 107 107 118 130 111 118 111 113 106 83 57 45 60 32 68 69 46 67 93 103 137 136 131 109 96 113 90 137 123 90 169 209 210 168 127 153 153 158 156 157 161 163 163 162 163 166 167 165 160 160 159 161 163
119 112 110 111 114 107 106 99 77 98 67 64 44 59 63 86 78 93 100 115 125 124 128 114 94 94 93 108 159 120 163 198 218 183 76 124 154 158 160 159 164 166 168 169 169 168 165 162 162 160 160 164 166 161
115 111 96 99 112 99 85 79 71 69 65 58 46 98 114 107 96 98 116 99 124 123 112 100 111 94 101 127 151 201 194 187 105 70 115 145 158 167 161 170 170 170 170 169 169 167 165 164 164 164 164 165 162 166
109 93 100 94 111 90 57 74 43 52 57 50 62 41 59 69 75 95 121 102 99 116 67 102 80 70 131 145 153 227 63 56 109 122 126 160 160 161 169 169 171 173 170 171 168 166 165 165 164 164 166 165 169 179
101 104 105 100 114 81 68 53 68 65 65 37 74 35 53 67 97 114 98 70 76 84 58 62 124 117 142 138 115 111 107 116 104 110 129 148 161 168 168 172 173 175 176 173 173 171 171 167 161 157 162 172 168 182
101 101 104 72 106 66 54 42 45 77 60 60 65 62 62 67 77 113 118 74 66 68 92 97 77 80 70 60 92 103 132 145 140 132 136 152 163 166 172 175 177 178 179 176 173 170 171 162 161 171 169 174 180 201
95 92 66 52 96 63 64 40 48 72 54 62 46 54 68 62 77 88 120 70 61 36 69 51 48 56 72 82 74 104 136 135 134 137 140 154 168 172 177 176 172 178 171 169 162 164 167 170 175 177 181 192 198 212
92 69 68 79 64 59 71 45 59 66 75 79 72 77 76 77 74 68 78 57 31 23 86 76 99 110 108 100 92 102 131 136 151 168 173 164 169 168 169 166 177 165 168 169 174 176 173 182 189 194 210 200 208 214
70 58 56 51 59 63 57 37 73 75 71 78 65 52 75 75 66 57 55 165 104 56 70 88 118 127 106 92 81 104 149 161 156 144 158 169 160 167 169 173 168 171 175 178 181 187 179 181 182 199 202 216 217 221
69 46 44 38 66 62 50 24 66 39 69 56 42 65 67 60 43 5 161 152 85 95 97 110 117 128 142 125 113 125 136 129 126 137 144 150 158 163 167 167 172 171 172 174 181 180 183 189 194 192 208 206 213 273
38 44 38 42 46 74 60 45 63 81 81 74 105 85 57 54 2 211 202 90 71 72 119 127 132 122 117 113 116 135 142 134 134 134 145 149 151 153 157 159 167 169 173 176 174 197 206 202 199 198 200 194 207 209
44 19 43 59 42 75 77 71 29 84 93 131 135 122 106 108 251 230 218 111 125 111 119 139 143 146 148 131 141 160 152 135 146 145 146 151 156 150 151 158 162 171 175 175 186 185 189 192 193 197 190 197 221 247
59 18 26 37 41 20 64 93 83 65 92 138 129 93 156 209 235 223 89 106 111 91 123 139 139 130 124 138 152 146 158 146 137 136 139 151 154 160 161 162 161 161 162 181 183 180 184 185 201 219 231 246 262 277
63 69 62 61 61 73 88 71 78 126 156 179 144 168 184 235 190 82 117 88 123 197 179 176 147 91 141 161 186 180 170 158 150 153 156 160 158 160 163 170 174 195 179 186 177 175 188 208 214 225 245 265 277 283
51 99 49 119 80 58 68 19 150 213 203 64 145 199 275 358 49 86 120 165 160 162 167 172 168 151 166 190 184 179 176 173 172 167 157 155 157 165 174 181 186 184 188 191 197 208 207 211 223 243 263 279 286 291
96 121 124 118 148 210 235 227 258 67 54 195 284 20 81 55 153 132 158 110 127 126 136 176 195 203 201 184 179 177 174 171 166 162 159 160 168 168 172 175 179 185 192 203 201 196 201 223 250 274 282 285 295 306
179 176 201 177 205 223 150 194 200 234 199 204 208 315 286 259 221 216 209 203 170 170 205 204 206 195 197 194 184 177 178 171 164 174 184 174 195 190 185 186 187 190 192 187 189 197 221 263 284 288 292 303 314 324
156 183 212 221 245 162 249 246 248 265 269 255 254 242 254 230 282 257 237 235 229 221 216 224 213 204 195 198 189 183 178 176 177 185 194 202 180 176 182 184 183 180 177 181 192 217 260 280 292 306 320 329 331 331
186 202 219 227 208 258 258 244 258 255 248 254 238 221 254 234 232 252 245 227 219 210 206 201 199 195 195 196 193 189 192 183 176 174 170 171 172 175 175 172 169 172 178 187 210 234 250 280 320 339 340 339 339 340
192 200 216 250 218 218 209 232 237 259 236 246 245 235 237 267 303 243 247 209 192 177 193 197 203 207 200 193 188 182 179 179 174 162 157 158 162 162 161 162 164 167 177 186 181 170 144 71 13 359 354 353 351 349
Height
1278 1279 1283 1284 1284 1280 1273 1262 1251 1246 1235 1230 1233 1243 1265 1297 1319 1340 1357 1371 1381 1394 1404 1408 1415 1420 1429 1432 1436 1441 1450 1454 1456 1452 1445 1440 1438 1442 1444 1439 1445 1450 1450 1452 1451 1449 1449 1479 1481 1476 1477 1480 1483 1485
1271 1276 1279 1280 1281 1279 1274 1268 1263 1261 1259 1257 1262 1274 1292 1313 1332 1343 1356 1369 1382 1393 1406 1412 1418 1426 1429 1431 1432 1438 1435 1440 1445 1443 1439 1437 1443 1443 1440 1448 1450 1452 1450 1452 1462 1469 1480 1481 1479 1480 1482 1484 1486 1488
1271 1276 1278 1279 1281 1281 1279 1276 1274 1272 1274 1278 1285 1295 1308 1322 1335 1345 1358 1372 1381 1394 1409 1417 1422 1425 1425 1427 1430 1432 1436 1439 1441 1441 1441 1441 1440 1439 1440 1440 1451 1460 1461 1466 1470 1479 1481 1483 1483 1483 1485 1487 1489 1491
1273 1277 1279 1280 1283 1284 1285 1284 1285 1288 1291 1298 1305 1315 1324 1335 1345 1357 1367 1379 1382 1390 1403 1420 1422 1422 1425 1426 1428 1431 1434 1438 1441 1443 1444 1444 1442 1447 1443 1445 1451 1460 1463 1466 1477 1480 1482 1485 1486 1486 1487 1490 1492 1494
1277 1280 1280 1282 1287 1290 1293 1295 1297 1300 1306 1313 1320 1328 1336 1345 1354 1364 1373 1379 1384 1388 1402 1417 1422 1426 1427 1428 1429 1432 1435 1438 1441 1443 1444 1441 1446 1450 1454 1455 1459 1461 1463 1464 1460 1472 1476 1483 1487 1488 1490 1493 1495 1496
1282 1285 1288 1290 1293 1297 1300 1305 1309 1314 1320 1326 1332 1338 1345 1353 1361 1365 1373 1386 1387 1389 1401 1415 1429 1431 1431 1432 1434 1436 1438 1440 1440 1440 1443 1446 1450 1450 1448 1455 1463 1466 1467 1467 1471 1474 1477 1483 1487 1490 1492 1494 1496 1497
1290 1294 1296 1299 1302 1305 1310 1316 1321 1325 1330 1335 1341 1348 1353 1359 1364 1368 1375 1384 1387 1392 1399 1415 1427 1433 1434 1435 1437 1439 1441 1442 1442 1444 1444 1445 1450 1451 1453 1450 1463 1467 1468 1470 1473 1475 1481 1485 1488 1492 1494 1495 1497 1498
1298 1301 1305 1308 1313 1317 1321 1325 1329 1334 1338 1343 1349 1354 1359 1362 1367 1372 1379 1384 1388 1392 1398 1410 1426 1432 1434 1435 1438 1441 1442 1443 1445 1445 1448 1444 1451 1451 1455 1459 1464 1467 1471 1474 1477 1477 1479 1484 1489 1492 1494 1496 1498 1500
1307 1310 1315 1319 1324 1327 1331 1334 1337 1341 1346 1351 1354 1358 1362 1369 1376 1380 1384 1387 1388 1394 1400 1409 1414 1427 1433 1436 1439 1442 1442 1443 1448 1446 1444 1447 1448 1451 1454 1459 1463 1468 1471 1474 1477 1480 1482 1485 1489 1492 1495 1497 1498 1500
1317 1320 1324 1328 1331 1335 1338 1342 1345 1348 1351 1356 1360 1363 1372 1377 1380 1384 1390 1390 1394 1400 1405 1409 1415 1423 1429 1433 1438 1442 1442 1443 1444 1446 1448 1447 1445 1453 1455 1459 1463 1468 1470 1474 1477 1481 1484 1486 1489 1492 1494 1496 1498 1500
1327 1330 1333 1336 1340 1344 1347 1350 1353 1356 1357 1359 1363 1372 1378 1380 1384 1388 1392 1396 1400 1407 1413 1417 1419 1422 1431 1432 1436 1439 1440 1442 1442 1446 1447 1446 1443 1453 1457 1461 1465 1469 1472 1475 1477 1480 1483 1486 1488 1491 1493 1495 1497 1498
1335 1338 1341 1344 1348 1351 1354 1356 1358 1360 1361 1364 1367 1374 1380 1385 1388 1391 1398 1401 1399 1408 1414 1418 1422 1427 1432 1434 1437 1442 1442 1443 1442 1446 1448 1442 1447 1453 1457 1462 1466 1470 1473 1476 1478 1481 1483 1486 1488 1490 1492 1494 1496 1497
1344 1347 1349 1352 1356 1358 1360 1362 1364 1367 1367 1371 1375 1380 1384 1391 1392 1391 1401 1400 1405 1412 1415 1419 1424 1428 1433 1436 1440 1440 1443 1443 1448 1446 1441 1438 1448 1453 1458 1462 1466 1470 1473 1476 1478 1481 1483 1485 1488 1489 1490 1492 1495 1497
1353 1356 1357 1360 1363 1365 1366 1368 1370 1371 1372 1375 1381 1389 1390 1394 1396 1399 1396 1399 1408 1410 1415 1420 1424 1427 1434 1437 1441 1440 1444 1443 1442 1441 1433 1442 1450 1454 1459 1463 1466 1469 1471 1473 1476 1478 1480 1482 1485 1488 1490 1493 1495 1497
1362 1363 1366 1368 1369 1371 1372 1373 1373 1374 1377 1385 1390 1395 1400 1404 1405 1406 1407 1408 1411 1414 1418 1422 1425 1429 1434 1439 1438 1440 1444 1439 1434 1431 1441 1448 1451 1456 1460 1463 1465 1468 1470 1473 1475 1477 1480 1483 1485 1488 1491 1493 1495 1497
1368 1370 1372 1374 1375 1376 1377 1377 1377 1377 1386 1393 1400 1402 1404 1405 1408 1408 1411 1412 1415 1418 1420 1421 1425 1431 1435 1435 1436 1436 1431 1430 1436 1444 1448 1449 1453 1456 1459 1462 1465 1468 1470 1472 1475 1477 1480 1483 1486 1488 1491 1493 1495 1497
1374 1375 1377 1379 1379 1380 1380 1380 1382 1389 1397 1402 1407 1407 1406 1408 1410 1411 1414 1417 1418 1420 1422 1421 1426 1432 1433 1432 1433 1432 1435 1441 1446 1448 1448 1450 1453 1456 1459 1462 1465 1468 1470 1472 1475 1478 1481 1484 1486 1489 1491 1493 1495 1496
1380 1382 1383 1383 1384 1383 1383 1386 1394 1401 1406 1409 1409 1412 1411 1411 1414 1416 1418 1420 1422 1422 1423 1426 1428 1431 1431 1433 1432 1438 1442 1446 1447 1447 1449 1452 1454 1456 1459 1462 1465 1468 1470 1473 1476 1479 1481 1484 1487 1490 1492 1493 1495 1497
1386 1387 1388 1388 1388 1388 1392 1397 1400 1407 1413 1415 1416 1416 1416 1418 1420 1421 1422 1424 1425 1426 1427 1428 1430 1428 1433 1437 1439 1442 1443 1445 1447 1449 1450 1453 1455 1457 1460 1462 1465 1468 1470 1473 1476 1479 1482 1485 1489 1491 1492 1493 1496 1496
1392 1393 1392 1392 1391 1394 1399 1406 1407 1412 1417 1420 1420 1421 1422 1423 1424 1425 1427 1427 1428 1429 1430 1431 1433 1437 1439 1442 1443 1443 1443 1445 1447 1450 1452 1453 1455 1458 1460 1463 1466 1468 1471 1474 1477 1480 1483 1486 1488 1490 1492 1493 1494 1494
1398 1398 1397 1396 1395 1400 1408 1412 1415 1419 1421 1423 1424 1424 1425 1426 1428 1429 1431 1432 1432 1431 1433 1437 1439 1440 1441 1443 1443 1444 1444 1447 1449 1450 1451 1453 1456 1459 1460 1464 1465 1469 1472 1474 1477 1480 1482 1485 1487 1489 1488 1490 1490 1490
1403 1403 1402 1402 1405 1410 1416 1418 1420 1422 1425 1426 1425 1426 1427 1429 1431 1432 1434 1434 1434 1436 1438 1440 1441 1442 1444 1444 1444 1445 1446 1447 1448 1449 1451 1453 1456 1458 1461 1463 1466 1469 1472 1474 1477 1479 1482 1484 1485 1485 1486 1486 1487 1487
1408 1407 1407 1409 1412 1417 1425 1422 1424 1424 1426 1428 1429 1429 1431 1432 1434 1435 1435 1434 1437 1438 1439 1441 1441 1443 1444 1444 1445 1446 1448 1450 1450 1450 1452 1455 1457 1459 1461 1463 1466 1468 1471 1474 1476 1478 1480 1481 1482 1483 1484 1485 1485 1485
1411 1412 1414 1416 1419 1423 1425 1426 1427 1428 1429 1430 1430 1431 1433 1435 1436 1435 1433 1435 1438 1439 1440 1441 1443 1444 1445 1446 1448 1448 1448 1450 1450 1452 1454 1455 1457 1459 1461 1464 1466 1468 1471 1473 1475 1475 1477 1479 1480 1481 1482 1483 1483 1483
1418 1422 1422 1423 1425 1426 1427 1429 1430 1429 1430 1432 1433 1433 1435 1436 1435 1433 1433 1437 1439 1440 1441 1442 1444 1445 1446 1447 1448 1448 1448 1451 1452 1453 1454 1457 1458 1460 1462 1464 1466 1467 1469 1471 1473 1474 1475 1477 1479 1479 1480 1481 1480 1479
1422 1426 1426 1427 1429 1427 1428 1430 1432 1431 1432 1433 1434 1436 1436 1436 1436 1432 1434 1439 1440 1441 1441 1442 1444 1446 1446 1447 1449 1449 1449 1451 1452 1453 1455 1457 1459 1460 1462 1463 1465 1467 1469 1471 1472 1473 1474 1475 1476 1476 1477 1477 1477 1477
1425 1428 1430 1430 1431 1431 1432 1433 1433 1433 1433 1432 1433 1435 1436 1433 1431 1436 1439 1440 1440 1440 1440 1442 1443 1446 1447 1447 1446 1447 1448 1450 1452 1453 1454 1455 1457 1460 1462 1464 1466 1466 1468 1470 1471 1472 1473 1473 1474 1475 1475 1475 1475 1474
1430 1430 1431 1433 1433 1434 1434 1433 1433 1433 1432 1434 1434 1434 1433 1433 1434 1440 1439 1438 1438 1439 1440 1442 1443 1444 1445 1445 1446 1447 1448 1450 1451 1452 1454 1456 1458 1460 1461 1463 1464 1466 1467 1468 1470 1471 1471 1472 1473 1473 1473 1473 1472 1472
1431 1432 1433 1434 1435 1435 1435 1434 1434 1434 1435 1435 1435 1433 1437 1438 1438 1439 1438 1438 1439 1440 1441 1442 1443 1444 1445 1445 1446 1447 1449 1450 1452 1453 1456 1457 1458 1460 1461 1463 1464 1465 1467 1468 1469 1470 1471 1471 1472 1472 1471 1471 1470 1469
1432 1433 1433 1435 1435 1433 1434 1434 1435 1434 1434 1435 1436 1436 1437 1436 1437 1437 1438 1439 1439 1440 1441 1441 1442 1444 1444 1445 1446 1447 1449 1450 1452 1455 1456 1457 1457 1459 1460 1462 1463 1465 1466 1467 1468 1469 1470 1470 1470 1470 1469 1469 1468 1467
1432 1433 1433 1433 1432 1433 1433 1432 1433 1433 1433 1434 1434 1435 1436 1435 1433 1434 1435 1435 1436 1438 1439 1440 1441 1442 1444 1445 1446 1447 1448 1450 1452 1453 1454 1455 1456 1458 1460 1461 1463 1464 1466 1467 1468 1468 1469 1469 1469 1468 1468 1467 1467 1466
1431 1431 1432 1432 1432 1432 1432 1433 1433 1433 1432 1433 1432 1432 1433 1433 1434 1432 1429 1431 1433 1435 1437 1438 1439 1440 1441 1442 1444 1446 1447 1450 1451 1452 1454 1455 1456 1458 1460 1462 1463 1465 1466 1467 1467 1468 1468 1468 1467 1467 1467 1466 1465 1464
1431 1431 1432 1432 1432 1432 1432 1433 1432 1430 1431 1430 1429 1430 1430 1431 1429 1429 1428 1428 1430 1432 1434 1434 1436 1437 1439 1441 1443 1445 1447 1449 1451 1452 1454 1456 1458 1459 1461 1462 1464 1465 1466 1466 1467 1467 1467 1467 1467 1467 1466 1465 1464 1463